Date,TemperatureHighF,TemperatureAvgF,TemperatureLowF,DewpointHighF,DewpointAvgF,DewpointLowF,HumidityHigh,HumidityAvg,HumidityLow,PressureMaxIn,PressureMinIn,WindSpeedMaxMPH,WindSpeedAvgMPH,GustSpeedMaxMPH,PrecipitationSumIn
2013-1-1,49,46,42,49,44,26,100,94,52,0.00,40.00,11,4,19,1.20
2013-1-2,45,35,33,45,35,33,100,100,100,0.00,40.00,8,5,20,0.37
2013-1-3,40,32,28,34,30,22,100,93,66,0.00,40.00,5,4,11,0.01
2013-1-4,42,32,23,25,22,19,91,67,43,0.00,40.00,6,4,14,0.00
2013-1-5,48,36,24,36,24,20,95,65,38,0.00,40.00,6,3,11,0.04
2013-1-6,43,38,35,37,34,29,100,88,68,0.00,40.00,8,4,14,0.14
2013-1-7,49,37,27,33,28,25,95,73,47,0.00,40.00,8,4,14,0.01
2013-1-8,57,45,37,48,34,26,93,67,50,0.00,40.00,9,5,19,0.00
2013-1-9,56,52,49,55,51,48,100,96,90,0.00,40.00,6,3,11,0.03
2013-1-10,65,59,49,57,52,49,100,81,60,0.00,40.00,14,8,32,0.01
2013-1-11,64,62,58,64,59,52,100,90,78,0.00,40.00,15,12,29,0.10
2013-1-12,71,65,62,64,60,56,99,86,70,0.00,40.00,15,8,26,0.13
2013-1-13,66,63,59,61,57,55,99,81,73,0.00,40.00,15,11,30,1.18
2013-1-14,59,42,36,58,42,36,100,100,98,0.00,40.00,9,5,19,4.00
2013-1-15,56,43,37,56,43,37,100,100,100,0.00,40.00,9,4,24,2.39
2013-1-16,60,48,41,60,48,41,100,100,98,0.00,40.00,13,5,24,0.36
2013-1-17,43,36,30,43,36,29,100,100,97,0.00,40.00,16,7,28,1.00
2013-1-18,45,34,27,33,28,25,97,82,54,0.00,40.00,9,3,17,0.08
2013-1-19,51,39,27,32,26,24,98,65,35,0.00,40.00,8,4,16,0.01
2013-1-20,54,45,33,35,30,25,85,56,45,0.00,40.00,10,5,16,0.00
2013-1-21,44,35,28,33,21,10,89,59,30,0.00,40.00,8,4,16,0.00
2013-1-22,33,26,19,10,4,-2,55,40,26,0.00,40.00,7,5,15,0.00
2013-1-23,45,34,25,32,14,0,70,45,32,0.00,40.00,9,4,15,0.00
2013-1-24,44,35,24,38,18,-1,78,52,23,0.00,40.00,10,7,20,0.00
2013-1-25,40,33,24,40,25,4,100,76,40,0.00,40.00,10,6,20,0.28
2013-1-26,46,35,28,39,31,26,100,85,49,0.00,40.00,6,4,13,0.02
2013-1-27,50,39,27,34,30,26,97,72,48,0.00,40.00,9,4,17,0.00
2013-1-28,56,48,42,51,40,28,93,74,57,0.00,40.00,12,7,20,0.00
2013-1-29,65,56,45,58,53,44,100,89,74,0.00,40.00,11,6,23,0.02
2013-1-30,66,57,38,62,54,32,99,89,78,0.00,40.00,21,12,39,2.64
2013-1-31,43,38,30,32,22,18,78,53,37,0.00,40.00,12,8,27,0.14
2013-2-1,40,27,19,29,13,3,87,56,34,0.00,40.00,12,6,26,0.00
2013-2-2,36,27,16,33,21,9,91,77,55,0.00,40.00,9,5,19,0.00
2013-2-3,48,37,30,34,28,23,89,70,39,0.00,40.00,11,6,19,0.00
2013-2-4,48,35,23,27,22,19,91,63,34,0.00,40.00,11,4,18,0.00
2013-2-5,58,48,40,45,36,23,91,65,42,0.00,40.00,7,5,17,0.02
2013-2-6,61,47,34,44,31,26,94,59,28,0.00,40.00,6,3,14,0.01
2013-2-7,51,47,40,45,35,25,97,67,40,0.00,40.00,10,6,19,0.07
2013-2-8,51,44,34,46,40,29,100,89,58,0.00,40.00,9,6,21,0.24
2013-2-9,54,39,28,31,27,22,90,66,29,0.00,40.00,7,4,15,0.03
2013-2-10,56,49,45,51,32,22,98,58,29,0.00,40.00,16,12,33,0.69
2013-2-11,54,50,40,53,47,38,100,91,65,0.00,40.00,10,6,17,0.15
2013-2-12,49,43,38,40,31,26,95,65,40,0.00,40.00,6,4,14,0.08
2013-2-13,45,40,35,44,39,32,100,95,84,0.00,40.00,14,7,25,0.19
2013-2-14,52,41,34,35,32,29,90,71,48,0.00,40.00,7,4,15,0.01
2013-2-15,55,40,30,38,33,27,99,77,48,0.00,40.00,9,4,22,0.03
2013-2-16,36,30,24,30,18,10,87,63,40,0.00,40.00,8,6,22,0.02
2013-2-17,40,28,17,12,9,5,66,45,27,0.00,40.00,8,4,16,0.00
2013-2-18,57,40,24,25,19,12,68,46,29,0.00,40.00,15,7,25,0.00
2013-2-19,51,42,35,43,26,8,99,59,22,0.00,40.00,18,9,31,0.35
2013-2-20,36,33,27,16,13,9,55,44,32,0.00,40.00,7,5,17,0.04
2013-2-21,53,38,26,42,20,11,99,51,24,0.00,40.00,12,4,20,0.70
2013-2-22,50,45,42,45,42,39,100,91,80,0.00,40.00,16,9,29,1.17
2013-2-23,51,46,42,49,45,42,100,97,81,0.00,40.00,7,3,12,0.33
2013-2-24,54,42,31,42,30,23,99,68,34,0.00,40.00,6,4,14,0.01
2013-2-25,56,46,37,41,28,20,81,52,34,0.00,40.00,13,7,27,0.00
2013-2-26,53,45,38,49,42,34,98,88,73,0.00,40.00,16,11,29,0.50
2013-2-27,50,41,35,35,32,29,93,73,47,0.00,40.00,11,8,22,0.05
2013-2-28,38,34,31,30,25,23,84,71,64,0.00,40.00,11,6,22,0.02
2013-3-1,35,32,30,30,28,23,96,82,70,0.00,40.00,6,4,12,0.00
2013-3-2,32,30,27,30,27,23,99,91,75,0.00,40.00,7,5,17,0.04
2013-3-3,34,28,21,23,18,13,96,68,49,0.00,40.00,8,5,20,0.13
2013-3-4,53,35,19,31,20,15,86,59,30,0.00,40.00,5,3,9,0.02
2013-3-5,56,48,33,53,42,26,95,81,46,0.00,40.00,15,11,30,0.57
2013-3-6,33,30,27,27,24,18,94,79,63,0.00,40.00,11,8,27,0.01
2013-3-7,40,33,29,28,27,25,94,79,60,0.00,40.00,8,6,16,0.00
2013-3-8,53,36,22,29,23,17,95,65,26,0.00,40.00,8,4,16,0.00
2013-3-9,58,46,32,30,26,23,71,48,31,0.00,40.00,6,4,13,0.00
2013-3-10,67,58,51,35,29,27,44,35,23,0.00,40.00,15,10,27,0.00
2013-3-11,60,54,42,52,48,35,100,79,44,0.00,40.00,20,11,36,1.04
2013-3-12,52,41,34,42,32,26,100,71,40,0.00,40.00,8,6,18,0.36
2013-3-13,44,39,29,29,22,16,66,52,38,0.00,40.00,11,6,23,0.00
2013-3-14,48,33,23,33,16,13,91,53,26,0.00,40.00,9,5,22,0.00
2013-3-15,69,50,30,41,35,29,98,62,34,0.00,40.00,10,6,21,0.01
2013-3-16,73,64,56,46,42,38,55,45,34,0.00,40.00,12,10,25,0.01
2013-3-17,67,62,55,52,46,42,75,57,44,0.00,40.00,12,8,21,0.00
2013-3-18,59,55,48,56,51,46,100,85,69,0.00,40.00,16,9,26,0.76
2013-3-19,56,48,38,50,30,8,100,56,23,0.00,40.00,10,6,22,0.26
2013-3-20,53,43,35,28,14,2,75,33,14,0.00,40.00,10,6,22,0.00
2013-3-21,40,30,20,28,12,7,82,48,29,0.00,40.00,8,5,20,0.00
2013-3-22,44,35,26,28,17,10,62,47,32,0.00,40.00,4,2,8,0.00
2013-3-23,51,44,38,46,40,28,98,88,61,0.00,40.00,6,3,15,0.14
2013-3-24,60,50,39,53,47,29,100,88,65,0.00,40.00,14,8,30,1.32
2013-3-25,39,32,29,29,22,19,74,67,59,0.00,40.00,12,9,26,0.06
2013-3-26,35,30,27,28,25,21,92,80,61,0.00,40.00,8,5,22,0.02
2013-3-27,48,35,28,26,24,19,86,66,33,0.00,40.00,8,5,16,0.02
2013-3-28,56,50,41,29,26,24,54,39,33,0.00,40.00,8,5,16,0.00
2013-3-29,52,42,32,36,27,20,68,56,37,0.00,40.00,5,2,10,0.00
2013-3-30,62,51,39,51,42,35,100,74,46,0.00,40.00,9,3,14,0.25
2013-3-31,59,55,51,57,51,-100,100,94,72,0.00,40.00,10,7,22,0.74
2013-4-1,64,53,39,54,44,32,100,75,44,0.00,40.00,8,4,19,0.15
2013-4-2,54,45,36,34,24,19,64,45,27,0.00,40.00,7,5,15,0.00
2013-4-3,54,46,39,27,21,15,51,37,29,0.00,40.00,8,5,16,0.00
2013-4-4,50,42,39,41,37,21,100,87,34,0.00,40.00,9,5,18,1.10
2013-4-5,60,46,38,43,38,35,100,78,39,0.00,40.00,8,5,17,0.09
2013-4-6,70,54,38,44,36,32,86,54,28,0.00,40.00,10,5,17,0.02
2013-4-7,70,61,52,45,40,32,58,46,36,0.00,40.00,12,8,22,0.00
2013-4-8,73,64,53,53,48,42,76,57,44,0.00,40.00,14,7,24,0.00
2013-4-9,79,66,52,57,52,47,93,62,42,0.00,40.00,10,5,21,0.00
2013-4-10,80,72,59,57,54,50,75,55,42,0.00,40.00,9,6,23,0.00
2013-4-11,76,69,60,60,55,52,99,63,45,0.00,40.00,16,10,26,1.24
2013-4-12,63,56,44,59,45,32,99,72,34,0.00,40.00,15,7,27,1.64
2013-4-13,68,56,44,39,36,30,82,49,24,0.00,40.00,7,5,16,0.05
2013-4-14,65,54,46,51,39,34,83,58,33,0.00,40.00,11,5,24,0.01
2013-4-15,75,62,54,57,53,47,93,74,52,0.00,40.00,9,5,16,0.01
2013-4-16,79,68,59,63,58,53,88,72,54,0.00,40.00,10,7,21,0.00
2013-4-17,82,68,61,67,60,55,97,77,54,0.00,40.00,8,4,17,0.81
2013-4-18,78,68,57,61,57,51,99,71,40,0.00,40.00,15,8,25,0.65
2013-4-19,71,57,43,61,50,33,99,79,57,0.00,40.00,20,10,36,1.77
2013-4-20,59,45,30,33,29,25,93,57,29,0.00,40.00,8,5,15,0.01
2013-4-21,65,52,37,40,33,25,80,48,33,0.00,40.00,8,5,16,0.00
2013-4-22,69,57,48,44,39,35,70,51,36,0.00,40.00,10,6,17,0.00
2013-4-23,71,60,48,47,39,30,64,47,36,0.00,40.00,10,6,16,0.00
2013-4-24,67,58,45,59,50,42,99,77,51,0.00,40.00,17,8,31,0.33
2013-4-25,62,49,37,45,37,29,99,67,31,0.00,40.00,9,5,16,0.14
2013-4-26,68,57,43,46,34,28,81,44,29,0.00,40.00,9,5,16,0.00
2013-4-27,55,52,49,51,49,46,99,92,75,0.00,40.00,12,6,23,0.58
2013-4-28,56,54,53,55,51,-100,100,94,79,0.00,40.00,13,9,25,2.37
2013-4-29,70,58,49,56,53,49,100,86,52,0.00,40.00,6,4,14,0.15
2013-4-30,76,68,48,58,55,48,100,67,53,0.00,40.00,8,4,15,0.00
2013-5-1,74,66,60,58,55,51,90,68,50,0.00,40.00,10,6,18,0.00
2013-5-2,71,64,57,56,53,49,75,67,53,0.00,40.00,10,8,21,0.00
2013-5-3,69,61,58,53,51,47,81,70,49,0.00,40.00,13,9,25,0.00
2013-5-4,59,54,49,51,48,42,99,84,63,0.00,40.00,13,7,26,1.31
2013-5-5,56,50,45,52,49,44,99,96,82,0.00,40.00,6,3,14,2.42
2013-5-6,52,47,39,49,45,39,100,93,76,0.00,40.00,8,4,16,0.78
2013-5-7,68,54,44,56,48,44,100,82,50,0.00,40.00,7,3,13,0.21
2013-5-8,71,60,51,60,54,50,99,82,60,0.00,40.00,7,4,14,0.21
2013-5-9,77,64,52,62,55,52,100,77,44,0.00,40.00,6,3,15,0.00
2013-5-10,71,63,54,58,52,-100,99,72,54,0.00,40.00,12,6,21,0.00
2013-5-11,71,63,57,63,58,51,93,83,68,0.00,40.00,9,5,16,0.39
2013-5-12,61,54,49,50,38,-100,90,60,32,0.00,40.00,7,5,21,0.23
2013-5-13,64,51,36,40,32,29,85,51,27,0.00,40.00,6,4,20,0.00
2013-5-14,75,58,39,53,43,35,88,62,39,0.00,40.00,8,4,19,0.00
2013-5-15,82,71,55,56,53,49,92,56,37,0.00,40.00,8,5,20,0.00
2013-5-16,79,60,58,60,26,-100,88,62,45,0.00,40.00,8,4,15,0.00
2013-5-17,79,67,57,64,48,-100,95,72,56,0.00,40.00,6,3,11,0.02
2013-5-18,75,66,61,67,63,60,99,90,75,0.00,40.00,8,5,14,0.37
2013-5-19,66,64,59,65,63,59,100,98,93,0.00,40.00,8,2,23,0.47
2013-5-20,80,66,56,68,62,56,100,87,65,0.00,40.00,5,2,9,0.09
2013-5-21,84,72,62,73,65,62,100,82,56,0.00,40.00,8,3,19,0.00
2013-5-22,82,72,61,66,62,58,97,73,48,0.00,40.00,12,5,20,0.08
2013-5-23,77,70,63,63,59,52,93,70,45,0.00,40.00,9,5,19,0.08
2013-5-24,67,60,52,54,48,40,88,66,38,0.00,40.00,9,5,21,0.00
2013-5-25,73,60,47,48,42,34,79,55,25,0.00,40.00,6,3,12,0.00
2013-5-26,76,62,48,54,46,42,85,61,31,0.00,40.00,5,2,11,0.00
2013-5-27,80,66,52,58,53,47,88,65,41,0.00,40.00,8,3,18,0.00
2013-5-28,83,72,61,60,57,54,82,60,43,0.00,40.00,8,5,15,0.00
2013-5-29,84,73,63,63,59,55,85,64,43,0.00,40.00,7,4,14,0.00
2013-5-30,82,73,66,63,61,59,82,67,51,0.00,40.00,8,6,17,0.00
2013-5-31,82,74,66,63,61,59,83,66,48,0.00,40.00,9,7,18,0.00
2013-6-1,83,73,67,68,64,60,96,74,58,0.00,40.00,10,7,19,0.25
2013-6-2,77,70,64,69,65,-100,99,89,69,0.00,40.00,8,4,23,1.07
2013-6-3,78,69,61,67,63,58,100,83,52,0.00,40.00,7,2,12,0.07
2013-6-4,80,68,56,63,59,55,99,75,48,0.00,40.00,6,2,12,0.01
2013-6-5,81,68,59,72,64,58,98,89,64,0.00,40.00,8,4,23,0.47
2013-6-6,79,69,61,69,65,61,99,86,62,0.00,40.00,6,3,13,0.30
2013-6-7,78,68,63,68,65,63,100,92,68,0.00,40.00,6,2,11,1.84
2013-6-8,78,67,58,66,62,58,100,85,57,0.00,40.00,6,3,11,0.84
2013-6-9,82,69,61,69,66,61,100,89,65,0.00,40.00,10,3,19,0.15
2013-6-10,79,72,66,67,64,62,98,79,61,0.00,40.00,12,8,24,0.30
2013-6-11,84,74,66,71,68,64,99,82,59,0.00,40.00,8,4,18,0.31
2013-6-12,86,76,66,74,70,65,99,82,61,0.00,40.00,7,3,13,0.01
2013-6-13,85,77,69,73,69,64,91,78,65,0.00,40.00,11,6,23,0.18
2013-6-14,79,70,60,64,58,54,90,67,47,0.00,40.00,8,6,18,0.18
2013-6-15,82,71,58,62,58,54,93,66,47,0.00,40.00,6,4,14,0.00
2013-6-16,84,71,58,68,62,57,98,77,48,0.00,40.00,7,3,16,0.37
2013-6-17,82,71,65,69,67,65,100,89,65,0.00,40.00,6,2,12,0.52
2013-6-18,77,69,65,71,67,61,98,92,80,0.00,40.00,10,5,19,0.50
2013-6-19,81,70,59,66,63,59,99,78,51,0.00,40.00,6,3,11,0.01
2013-6-20,85,70,61,68,64,60,99,82,56,0.00,40.00,5,2,11,0.00
2013-6-22,84,79,65,68,63,59,94,60,51,0.00,40.00,6,3,14,0.00
2013-6-23,83,71,60,71,65,59,99,83,54,0.00,40.00,5,2,11,0.23
2013-6-24,83,73,64,71,67,64,100,83,57,0.00,40.00,8,3,14,0.08
2013-6-25,83,73,64,73,68,64,99,87,62,0.00,40.00,6,2,12,0.01
2013-6-26,84,76,66,71,69,66,100,81,62,0.00,40.00,8,4,18,0.01
2013-6-27,83,76,71,73,70,66,99,80,70,0.00,40.00,10,6,25,0.33
2013-6-28,86,75,66,72,68,63,99,83,55,0.00,40.00,7,3,17,0.45
2013-6-29,83,75,63,66,62,57,98,68,44,0.00,40.00,6,4,15,0.07
2013-6-30,84,72,60,64,60,55,98,70,38,0.00,40.00,6,2,14,0.03
2013-7-1,79,70,61,67,63,60,98,79,57,0.00,40.00,7,3,17,0.00
2013-7-2,81,72,63,68,65,62,99,81,56,0.00,40.00,7,3,16,1.08
2013-7-3,72,68,64,68,66,63,98,94,81,0.00,40.00,7,4,13,0.68
2013-7-4,72,68,64,70,66,63,98,95,88,0.00,40.00,7,4,13,0.79
2013-7-5,73,69,66,70,67,65,98,93,83,0.00,40.00,7,5,15,0.68
2013-7-6,74,68,65,70,67,65,99,95,85,0.00,40.00,7,4,14,2.25
2013-7-7,77,70,66,70,68,66,100,95,75,0.00,40.00,7,3,16,1.04
2013-7-8,84,72,67,73,67,-100,100,89,62,0.00,40.00,6,1,10,0.28
2013-7-9,86,76,68,74,71,68,100,87,61,0.00,40.00,6,2,15,0.01
2013-7-10,87,72,67,75,65,-100,100,84,62,0.00,40.00,6,2,16,0.04
2013-7-11,83,73,66,72,69,65,100,89,65,0.00,40.00,5,2,10,0.12
2013-7-12,81,72,64,71,66,62,99,84,57,0.00,40.00,7,3,17,0.02
2013-7-13,81,72,63,67,65,61,94,77,62,0.00,40.00,8,4,18,0.00
2013-7-14,80,73,67,71,67,64,96,83,70,0.00,40.00,9,4,18,0.00
2013-7-15,84,74,67,71,66,65,94,79,56,0.00,40.00,9,4,18,0.01
2013-7-16,86,80,70,71,70,66,95,72,57,0.00,40.00,7,3,12,0.00
2013-7-17,87,76,66,74,69,66,99,81,56,0.00,40.00,8,2,14,0.00
2013-7-18,86,76,66,76,70,65,98,82,60,0.00,40.00,5,2,13,0.39
2013-7-19,87,75,66,73,70,66,99,85,54,0.00,40.00,6,2,11,0.39
2013-7-20,87,75,67,72,67,-100,99,78,56,0.00,40.00,6,3,11,0.00
2013-7-21,84,73,67,71,69,66,99,88,61,0.00,40.00,7,2,16,0.12
2013-7-22,80,72,66,72,68,64,99,87,67,0.00,40.00,9,5,20,0.12
2013-7-23,78,72,69,72,68,66,97,87,76,0.00,40.00,9,4,22,0.76
2013-7-24,81,73,68,71,69,66,98,88,70,0.00,40.00,6,3,12,0.27
2013-7-25,81,72,62,68,65,61,99,80,57,0.00,40.00,6,3,14,0.00
2013-7-26,82,71,59,70,65,58,98,81,62,0.00,40.00,6,2,11,0.00
2013-7-27,78,71,64,69,66,63,99,85,63,0.00,40.00,7,3,14,0.00
2013-7-28,80,72,67,66,64,56,94,77,58,0.00,40.00,6,4,14,0.00
2013-7-29,79,66,56,60,56,54,97,75,48,0.00,40.00,6,2,13,0.00
2013-7-30,83,69,55,67,61,54,95,76,52,0.00,40.00,4,1,8,0.00
2013-7-31,75,69,65,70,67,64,98,92,82,0.00,40.00,5,2,11,0.46
2013-8-1,80,73,69,70,68,65,98,84,60,0.00,40.00,7,3,17,0.01
2013-8-2,83,72,62,69,65,61,98,81,53,0.00,40.00,5,2,11,0.01
2013-8-3,79,72,63,69,66,62,99,84,60,0.00,40.00,6,2,11,0.00
2013-8-4,82,74,68,70,66,59,97,78,51,0.00,40.00,7,4,16,0.00
2013-8-5,83,70,57,67,61,55,98,76,38,0.00,40.00,5,2,13,0.00
2013-8-6,80,72,64,72,67,61,98,85,64,0.00,40.00,4,1,8,0.03
2013-8-7,80,73,70,72,70,69,98,91,76,0.00,40.00,6,2,13,0.83
2013-8-8,85,74,68,73,70,67,99,89,60,0.00,40.00,6,2,18,0.08
2013-8-9,86,76,68,74,71,68,99,86,58,0.00,40.00,7,2,14,0.06
2013-8-10,85,75,69,73,71,68,98,87,65,0.00,40.00,9,3,25,0.14
2013-8-11,84,73,67,74,70,67,99,90,67,0.00,40.00,9,2,26,0.69
2013-8-12,84,73,67,75,70,67,100,92,69,0.00,40.00,6,2,21,0.26
2013-8-13,82,72,68,72,67,-100,100,88,66,0.00,40.00,7,4,16,1.01
2013-8-14,75,69,63,69,64,57,100,85,56,0.00,40.00,9,4,16,0.57
2013-8-15,75,62,60,65,49,-100,96,74,60,0.00,40.00,8,4,15,0.00
2013-8-16,72,64,61,65,54,-100,98,79,68,0.00,40.00,7,4,14,0.00
2013-8-17,70,65,62,64,61,57,100,87,74,0.00,40.00,6,4,14,0.55
2013-8-18,74,66,63,69,63,-100,100,92,77,0.00,40.00,6,3,14,0.55
2013-8-19,77,65,65,73,59,-100,100,95,80,0.00,40.00,5,3,11,0.71
2013-8-20,80,70,63,73,66,-100,100,90,71,0.00,40.00,4,2,11,0.01
2013-8-21,75,70,66,73,70,66,100,99,94,0.00,40.00,6,2,12,0.83
2013-8-22,83,72,65,74,69,65,100,92,63,0.00,40.00,4,1,10,0.03
2013-8-23,83,72,63,73,68,63,100,87,62,0.00,40.00,4,2,11,0.03
2013-8-24,83,71,62,72,67,62,100,87,64,0.00,40.00,6,2,12,0.00
2013-8-25,81,71,64,66,57,-100,100,67,52,0.00,40.00,7,4,16,0.00
2013-8-26,79,69,59,67,62,59,100,79,56,0.00,40.00,5,2,15,0.00
2013-8-27,82,68,60,68,63,60,100,87,60,0.00,40.00,6,2,11,0.00
2013-8-28,84,79,70,72,70,68,100,75,59,0.00,40.00,6,3,12,0.00
2013-8-29,86,76,68,74,71,68,100,86,64,0.00,40.00,5,2,16,0.01
2013-8-30,86,74,67,75,71,67,100,91,64,0.00,40.00,6,2,11,0.02
2013-8-31,87,76,67,76,71,67,100,87,58,0.00,40.00,5,2,11,0.00
2013-9-1,84,71,67,73,67,-100,100,92,63,0.00,40.00,7,2,23,0.97
2013-9-2,80,72,65,72,69,65,100,92,74,0.00,40.00,7,2,13,0.01
2013-9-3,83,75,69,71,69,65,100,83,54,0.00,40.00,6,4,13,0.00
2013-9-4,81,70,59,71,64,59,100,84,59,0.00,40.00,6,2,11,0.00
2013-9-5,80,69,60,70,64,60,100,86,62,0.00,40.00,6,2,12,0.00
2013-9-6,81,69,58,69,63,58,100,84,60,0.00,40.00,6,2,11,0.00
2013-9-7,83,70,60,69,64,60,100,84,53,0.00,40.00,6,2,15,0.00
2013-9-8,84,72,63,71,64,-100,100,82,52,0.00,40.00,6,2,11,0.00
2013-9-9,84,73,65,72,68,65,100,86,59,0.00,40.00,6,2,9,0.00
2013-9-10,87,76,67,71,67,62,100,78,44,0.00,40.00,4,2,9,0.00
2013-9-11,84,74,64,71,67,64,100,84,53,0.00,40.00,3,1,7,0.00
2013-9-12,83,73,64,75,68,64,100,87,63,0.00,40.00,5,2,13,0.04
2013-9-13,76,70,59,68,60,49,100,75,44,0.00,40.00,8,5,16,0.03
2013-9-14,74,60,46,57,52,46,100,76,53,0.00,40.00,6,3,16,0.00
2013-9-15,81,62,53,63,54,-100,100,81,46,0.00,40.00,6,3,12,0.00
2013-9-16,80,68,58,68,61,56,100,80,46,0.00,40.00,6,2,15,0.00
2013-9-17,77,68,60,62,60,55,100,80,59,0.00,40.00,7,3,14,0.00
2013-9-18,64,63,62,56,54,53,75,74,73,0.00,40.00,7,6,17,0.00
2013-9-19,80,67,56,66,61,56,100,84,56,0.00,40.00,5,1,11,0.00
2013-9-20,83,69,59,65,61,59,100,79,47,0.00,40.00,7,2,13,0.00
2013-9-21,72,66,59,69,63,58,100,92,73,0.00,40.00,14,6,26,2.26
2013-9-22,71,61,51,58,53,-100,100,80,56,0.00,40.00,8,4,16,0.01
2013-9-23,78,64,52,63,56,52,100,81,50,0.00,40.00,6,2,14,0.00
2013-9-24,70,64,56,64,59,55,100,85,73,0.00,40.00,6,3,11,0.00
2013-9-25,65,63,61,65,63,60,100,99,88,0.00,40.00,5,3,11,1.13
2013-9-26,74,65,59,65,62,58,100,91,62,0.00,40.00,5,2,11,0.13
2013-9-27,76,64,55,61,58,54,100,82,53,0.00,40.00,4,2,10,0.01
2013-9-28,75,65,56,64,57,54,100,77,52,0.00,40.00,7,3,14,0.00
2013-9-29,71,61,55,61,53,-100,100,77,59,0.00,40.00,5,3,13,0.00
2013-9-30,73,61,51,61,56,51,100,86,57,0.00,40.00,5,2,10,0.00
2013-10-1,58,58,58,58,58,58,100,100,100,0.00,40.00,0,0,2,0.00
2013-10-2,80,66,57,66,61,57,100,87,59,0.00,40.00,4,2,7,0.00
2013-10-3,80,69,59,66,62,59,100,82,55,0.00,40.00,5,2,13,0.00
2013-10-4,81,66,56,67,61,56,100,87,55,0.00,40.00,4,1,8,0.00
2013-10-5,84,68,59,70,63,59,100,84,50,0.00,40.00,4,2,10,0.00
2013-10-6,81,69,59,66,62,59,100,81,53,0.00,40.00,9,6,18,0.08
2013-10-7,66,57,52,64,52,48,100,84,57,0.00,40.00,10,5,21,0.68
2013-10-8,70,57,45,57,51,45,100,81,62,0.00,40.00,7,4,17,0.01
2013-10-9,73,60,50,60,55,50,100,85,59,0.00,40.00,5,2,10,0.00
2013-10-10,73,61,51,58,54,51,100,83,57,0.00,40.00,6,3,15,0.00
2013-10-11,74,60,49,58,53,49,100,83,52,0.00,40.00,5,2,12,0.00
2013-10-12,75,61,52,59,55,52,100,85,52,0.00,40.00,4,2,11,0.00
2013-10-13,76,61,53,61,54,-100,100,84,57,0.00,40.00,6,2,13,0.00
2013-10-14,77,64,55,65,60,55,100,87,61,0.00,40.00,5,2,9,0.00
2013-10-15,68,62,54,60,57,54,100,86,69,0.00,40.00,5,3,10,0.00
2013-10-16,68,60,54,61,57,54,100,91,74,0.00,40.00,6,2,13,0.02
2013-10-17,68,61,54,64,60,51,100,94,86,0.00,40.00,8,5,17,0.14
2013-10-18,64,53,46,51,48,46,100,85,56,0.00,40.00,6,3,12,0.02
2013-10-19,62,53,46,53,49,46,100,88,69,0.00,40.00,9,3,19,0.00
2013-10-20,63,46,33,45,38,-100,100,82,48,0.00,40.00,6,2,19,0.00
2013-10-21,68,50,38,48,43,38,100,80,37,0.00,40.00,6,2,16,0.00
2013-10-22,68,56,48,52,48,42,97,76,53,0.00,40.00,5,3,12,0.00
2013-10-23,52,47,34,49,38,31,95,73,52,0.00,40.00,9,5,26,0.00
2013-10-24,54,43,31,39,36,30,99,78,50,0.00,40.00,6,2,14,0.00
2013-10-25,48,38,30,36,26,23,88,65,40,0.00,40.00,7,5,18,0.00
2013-10-26,56,41,27,31,27,25,96,64,33,0.00,40.00,8,4,18,0.00
2013-10-27,60,53,46,51,42,-100,87,69,40,0.00,40.00,7,3,16,0.00
2013-10-28,61,54,47,54,49,-100,100,88,63,0.00,40.00,8,3,18,0.02
2013-10-29,70,56,47,58,53,47,100,89,59,0.00,40.00,5,2,9,0.01
2013-10-30,75,61,53,59,54,52,100,81,47,0.00,40.00,8,3,16,0.00
2013-10-31,69,64,57,62,56,51,92,76,67,0.00,40.00,16,9,31,0.04
2013-11-1,70,64,56,63,53,40,99,71,43,0.00,40.00,18,7,43,0.37
2013-11-2,62,52,41,46,40,35,99,66,40,0.00,40.00,7,4,21,0.20
2013-11-3,57,46,37,41,36,-100,96,74,46,0.00,40.00,7,4,15,0.00
2013-11-4,63,51,36,38,34,32,95,57,35,0.00,40.00,10,5,20,0.00
2013-11-5,67,53,45,42,35,30,84,50,36,0.00,40.00,8,5,17,0.00
2013-11-6,71,62,54,55,50,33,87,68,44,0.00,40.00,11,7,19,0.00
2013-11-7,62,51,40,57,43,28,100,77,48,0.00,40.00,9,6,22,0.65
2013-11-8,52,42,33,29,24,21,68,52,29,0.00,40.00,8,5,23,0.03
2013-11-9,55,44,33,37,28,-100,77,56,39,0.00,40.00,5,2,13,0.00
2013-11-10,64,52,40,40,35,27,86,54,35,0.00,40.00,6,4,14,0.00
2013-11-11,63,48,31,34,29,25,80,51,28,0.00,40.00,6,2,12,0.00
2013-11-12,54,38,26,38,25,13,84,60,36,0.00,40.00,11,7,26,0.00
2013-11-13,42,30,23,18,14,12,67,53,30,0.00,40.00,9,5,18,0.00
2013-11-14,56,36,23,20,17,15,75,50,22,0.00,40.00,5,2,9,0.00
2013-11-15,50,45,34,49,34,16,100,69,37,0.00,40.00,5,2,12,0.21
2013-11-16,63,54,49,56,51,-100,100,91,76,0.00,40.00,9,4,20,0.09
2013-11-17,67,62,58,65,59,53,97,88,76,0.00,40.00,13,9,28,0.17
2013-11-18,67,57,45,66,42,29,95,60,30,0.00,40.00,10,5,30,0.16
2013-11-19,51,42,36,32,26,23,67,52,34,0.00,40.00,8,6,21,0.00
2013-11-20,58,47,38,32,27,22,61,45,29,0.00,40.00,11,6,22,0.00
2013-11-21,61,53,45,53,44,28,93,73,50,0.00,40.00,8,6,20,0.00
2013-11-22,61,57,54,59,56,53,100,96,91,0.00,40.00,8,4,18,0.26
2013-11-23,54,42,32,54,37,-100,100,86,56,0.00,40.00,9,7,22,0.37
2013-11-24,34,27,20,20,11,6,75,53,33,0.00,40.00,10,7,22,0.01
2013-11-25,41,34,25,34,16,7,98,50,25,0.00,40.00,7,4,16,0.15
2013-11-26,47,40,33,47,40,33,100,100,98,0.00,40.00,8,4,22,2.87
2013-11-27,35,28,21,35,24,15,100,86,66,0.00,40.00,11,7,29,0.16
2013-11-28,44,28,15,26,19,13,91,73,47,0.00,40.00,4,3,10,0.01
2013-11-29,49,35,24,27,23,19,90,65,36,0.00,40.00,5,3,11,0.01
2013-11-30,53,43,33,30,23,-100,76,49,38,0.00,40.00,7,4,14,0.00
2013-12-1,53,40,29,37,30,23,90,70,45,0.00,40.00,8,2,13,0.00
2013-12-2,46,44,40,46,41,33,100,93,61,0.00,40.00,8,2,15,0.11
2013-12-3,55,50,46,53,50,46,100,98,90,0.00,40.00,6,3,11,0.07
2013-12-4,67,59,52,59,56,51,100,89,72,0.00,40.00,10,6,21,0.01
2013-12-5,68,65,61,65,63,58,98,91,84,0.00,40.00,13,9,27,0.08
2013-12-6,67,58,36,65,57,36,100,96,91,0.00,40.00,17,9,35,1.28
2013-12-7,36,34,32,36,32,-100,100,99,100,0.00,40.00,8,6,17,0.71
2013-12-8,48,42,34,48,42,34,100,100,100,0.00,40.00,7,5,16,0.75
2013-12-9,52,46,43,52,46,43,100,100,93,0.00,40.00,12,4,22,1.30
2013-12-10,44,34,24,44,32,24,100,92,65,0.00,40.00,6,4,28,0.88
2013-12-11,51,34,21,27,23,20,98,68,32,0.00,40.00,5,3,14,0.05
2013-12-12,36,29,23,24,18,11,88,67,37,0.00,40.00,9,5,18,0.00
2013-12-13,47,33,21,25,18,13,74,55,30,0.00,40.00,7,3,17,0.00
2013-12-14,53,47,43,52,39,-100,100,79,36,0.00,40.00,10,7,25,1.03
2013-12-15,46,32,29,46,31,26,100,94,86,0.00,40.00,7,5,20,0.09
2013-12-16,49,36,23,32,27,22,98,72,49,0.00,40.00,8,4,16,0.01
2013-12-17,57,47,38,35,30,25,64,51,42,0.00,40.00,9,6,24,0.00
2013-12-18,47,35,28,22,19,14,75,53,26,0.00,40.00,6,4,17,0.00
2013-12-19,60,40,28,24,18,12,65,42,18,0.00,40.00,7,2,17,0.00
2013-12-20,61,53,40,52,37,22,80,55,34,0.00,40.00,8,5,17,0.00
2013-12-21,68,63,57,63,56,-100,91,82,78,0.00,40.00,16,12,31,0.09
2013-12-22,68,57,53,63,56,51,100,95,80,0.00,40.00,18,8,35,2.22
2013-12-23,53,40,31,53,39,27,100,96,86,0.00,40.00,7,5,17,0.48
2013-12-24,33,28,23,27,20,13,90,73,51,0.00,40.00,8,2,15,0.01
2013-12-25,44,28,16,24,18,13,92,69,41,0.00,40.00,6,2,13,0.00
2013-12-26,46,32,24,27,24,22,95,75,44,0.00,40.00,5,2,11,0.00
2013-12-27,51,34,25,26,24,22,93,70,34,0.00,40.00,5,1,11,0.00
2013-12-28,44,35,29,41,30,-100,99,86,52,0.00,40.00,10,3,19,0.82
2013-12-29,46,41,36,44,40,35,100,97,89,0.00,40.00,8,3,19,1.45
2013-12-30,43,36,32,39,34,30,100,94,87,0.00,40.00,6,3,14,0.02
2013-12-31,38,31,26,31,26,22,100,84,56,0.00,40.00,6,3,12,0.00
2014-1-1,49,35,26,32,26,21,87,70,41,0.00,40.00,6,3,14,0.00
2014-1-2,46,36,18,46,33,14,100,88,72,0.00,40.00,12,6,28,0.31